Amsterdam, Netherlands

4:10 PM CEST on September 20, 2017 (GMT +0200)
Schiphol

Weather History for EHAM - December, 2011

Change the Weather History Date:

Friday, December 23, 2011

  Actual Average Record
Temperature  
Mean Temperature 48 °F -  
Max Temperature 51 °F 41 °F 54 °F (2014)
Min Temperature 44 °F 33 °F 23 °F (2000)
Degree Days  
Heating Degree Days 16    
Moisture  
Dew Point 47 °F    
Average Humidity 95    
Maximum Humidity 100    
Minimum Humidity 82    
Precipitation  
Precipitation 0.12 in - - ()
Sea Level Pressure  
Sea Level Pressure 30.01 in    
Wind  
Wind Speed 12 mph ()    
Max Wind Speed 31 mph    
Max Gust Speed 44 mph    
Visibility 6.2 miles    
Events Rain    
Averages and records for this station are not official NWS values.
T = Trace of Precipitation, MM = Missing Value Source: Averaged Metar Reports

Daily Weather History Graph

Daily Weather History Graph

Search for Another Location

Airport or City:

Trip Planner

Search our weather history database for the weather conditions in past years. The results will help you decide how hot, cold, wet, or windy it might be!

Date:

Astronomy

Dec. 23, 2011 Rise Set
Actual Time 8:49 AM CET 4:30 PM CET
Civil Twilight 8:07 AM CET 5:11 PM CET
Nautical Twilight 7:23 AM CET 5:56 PM CET
Astronomical Twilight 6:42 AM CET 6:37 PM CET
Moon 7:23 AM CET (12/23) 3:21 PM CET (12/23)
Length of Visible Light 9h 04m
Length of Day
7h 41m
Waning Crescent, 2% of the Moon is Illuminated
Dec 23
Waning Crescent
Dec 24
New
Jan 1
First Quarter
Jan 9
Full
Jan 16
Last Quarter

Hourly Weather History & Observations

Time (CET) Temp. Windchill Dew Point Humidity Pressure Visibility Wind Dir Wind Speed Gust Speed Precip Events Conditions
12:25 AM 48.2 °F - 48.2 °F 100% 30.18 in 6.2 mi SSW 9.2 mph - N/A   Mostly Cloudy
12:55 AM 48.2 °F - 48.2 °F 100% 30.18 in 6.2 mi SW 9.2 mph - N/A   Mostly Cloudy
1:00 AM 49 °F - 47 °F 92% 30.20 in 7 mi SSW 8.9 mph - -   Overcast
1:25 AM 48.2 °F - 48.2 °F 100% 30.18 in 6.2 mi SW 8.1 mph - N/A   Mostly Cloudy
1:55 AM 48.2 °F - 48.2 °F 100% 30.18 in 6.2 mi SW 11.5 mph - N/A   Overcast
2:25 AM 48.2 °F - 46.4 °F 93% 30.15 in 6.2 mi SW 12.7 mph - N/A   Overcast
2:55 AM 48.2 °F - 46.4 °F 93% 30.18 in 6.2 mi SW 11.5 mph - N/A   Mostly Cloudy
3:25 AM 48.2 °F - 46.4 °F 93% 30.18 in 6.2 mi SW 10.4 mph - N/A   Mostly Cloudy
3:55 AM 48.2 °F - 46.4 °F 93% 30.15 in 6.2 mi SW 10.4 mph - N/A   Mostly Cloudy
4:00 AM 49 °F - 47 °F 90% 30.17 in 11 mi SW 11.2 mph - -   Overcast
4:25 AM 48.2 °F - 46.4 °F 93% 30.15 in 6.2 mi SW 10.4 mph - N/A   Mostly Cloudy
4:55 AM 50.0 °F - 46.4 °F 87% 30.15 in 6.2 mi SW 11.5 mph - N/A   Mostly Cloudy
5:25 AM 48.2 °F - 48.2 °F 100% 30.12 in 6.2 mi SW 11.5 mph - N/A   Mostly Cloudy
5:55 AM 48.2 °F - 48.2 °F 100% 30.12 in 6.2 mi SW 11.5 mph - N/A   Mostly Cloudy
6:25 AM 48.2 °F - 46.4 °F 93% 30.12 in 6.2 mi SSW 11.5 mph - N/A   Mostly Cloudy
6:55 AM 48.2 °F - 46.4 °F 93% 30.12 in 6.2 mi SSW 10.4 mph - N/A   Mostly Cloudy
7:00 AM 48 °F - 47 °F 96% 30.14 in 9 mi SSW 11.2 mph - -   Overcast
7:25 AM 48.2 °F - 48.2 °F 100% 30.12 in 6.2 mi SSW 9.2 mph - N/A   Mostly Cloudy
7:55 AM 48.2 °F - 48.2 °F 100% 30.12 in 6.2 mi SSW 9.2 mph - N/A   Mostly Cloudy
8:25 AM 50.0 °F - 48.2 °F 94% 30.09 in 6.2 mi SSW 11.5 mph - N/A   Mostly Cloudy
8:55 AM 50.0 °F - 48.2 °F 94% 30.09 in 6.2 mi SW 13.8 mph - N/A   Mostly Cloudy
9:25 AM 50.0 °F - 48.2 °F 94% 30.09 in 6.2 mi SW 13.8 mph - N/A   Mostly Cloudy
9:55 AM 51.8 °F - 46.4 °F 82% 30.09 in 6.2 mi SW 13.8 mph - N/A   Mostly Cloudy
10:00 AM 51 °F - 47 °F 82% 30.10 in 11 mi WSW 13.4 mph - -   Overcast
10:25 AM 51.8 °F - 48.2 °F 88% 30.09 in 6.2 mi SW 15.0 mph - N/A   Mostly Cloudy
10:55 AM 51.8 °F - 48.2 °F 88% 30.06 in 6.2 mi SW 13.8 mph - N/A   Light Drizzle
11:25 AM 50.0 °F - 48.2 °F 94% 30.06 in 6.2 mi SW 16.1 mph - N/A   Light Drizzle
11:55 AM 51.8 °F - 48.2 °F 88% 30.06 in 6.2 mi SW 17.3 mph - N/A   Mostly Cloudy
12:25 PM 50.0 °F - 48.2 °F 94% 30.04 in 3.7 mi SW 19.6 mph - N/A   Light Drizzle
12:55 PM 50.0 °F - 48.2 °F 94% 30.04 in 6.2 mi SW 18.4 mph - N/A   Mostly Cloudy
1:00 PM 50 °F - 49 °F 95% 30.04 in 16 mi SW 20.1 mph - - Rain Rain
1:25 PM 50.0 °F - 48.2 °F 94% 30.01 in 6.2 mi SW 20.7 mph - N/A   Light Drizzle
1:55 PM 50.0 °F - 48.2 °F 94% 30.01 in 3.7 mi SW 19.6 mph - N/A   Light Drizzle
2:25 PM 50.0 °F - 48.2 °F 94% 29.98 in 6.2 mi SSW 18.4 mph - N/A   Light Drizzle
2:55 PM 48.2 °F - 48.2 °F 100% 29.98 in 2.5 mi SSW 17.3 mph - N/A   Drizzle
3:25 PM 48.2 °F - 48.2 °F 100% 29.95 in 3.7 mi SSW 17.3 mph - N/A   Light Drizzle
3:55 PM 48.2 °F - 46.4 °F 93% 29.95 in 6.2 mi SSW 17.3 mph - N/A   Mostly Cloudy
4:00 PM 49 °F - 46 °F 86% 29.95 in 14 mi SSW 15.7 mph - - Rain Drizzle
4:25 PM 48.2 °F - 46.4 °F 93% 29.92 in 5.6 mi SSW 17.3 mph - N/A   Light Drizzle
4:55 PM 48.2 °F - 46.4 °F 93% 29.92 in 5.6 mi SSW 16.1 mph - N/A   Light Drizzle
5:25 PM 48.2 °F - 46.4 °F 93% 29.89 in 6.2 mi SSW 17.3 mph - N/A   Light Drizzle
5:55 PM 48.2 °F - 44.6 °F 87% 29.89 in 6.2 mi SSW 18.4 mph - N/A   Mostly Cloudy
6:25 PM 48.2 °F - 46.4 °F 93% 29.86 in 5.6 mi SSW 18.4 mph - N/A   Light Drizzle
6:55 PM 48.2 °F - 46.4 °F 93% 29.86 in 3.1 mi SSW 17.3 mph - N/A Rain Rain
7:25 PM 46.4 °F 39.8 °F 46.4 °F 100% 29.83 in 2.5 mi SSW 16.1 mph - N/A Rain Rain
7:55 PM 46.4 °F 39.2 °F 46.4 °F 100% 29.83 in 3.7 mi SSW 18.4 mph - N/A Rain Rain
8:25 PM 46.4 °F 39.2 °F 46.4 °F 100% 29.80 in 3.1 mi SSW 18.4 mph - N/A Rain Rain
8:55 PM 46.4 °F 39.2 °F 46.4 °F 100% 29.77 in 6.2 mi SSW 18.4 mph - N/A Rain Light Rain
9:25 PM 46.4 °F 39.2 °F 46.4 °F 100% 29.77 in 3.7 mi SSW 18.4 mph - N/A Rain Rain
9:55 PM 46.4 °F 39.5 °F 46.4 °F 100% 29.74 in - South 17.3 mph - N/A Rain Rain
10:00 PM 46 °F - 46 °F 99% 29.76 in 3 mi SSW 17.9 mph - - Rain Light Rain Showers
10:25 PM 46.4 °F 39.2 °F 46.4 °F 100% 29.74 in 5.0 mi SSW 18.4 mph - N/A Rain Light Rain
10:55 PM 46.4 °F 39.8 °F 46.4 °F 100% 29.71 in 6.2 mi SSW 16.1 mph - N/A   Mostly Cloudy
11:25 PM 46.4 °F 39.5 °F 44.6 °F 93% 29.71 in 6.2 mi SSW 17.3 mph - N/A Rain Light Rain
11:55 PM 44.6 °F 34.6 °F 42.8 °F 93% 29.71 in 5.6 mi NW 31.1 mph 43.7 mph N/A Rain Light Rain